This is the latest recevied weather packets stored in our database for station/object KC3ULW-13. If no packets are shown the sender has not sent any weather packets the latest 10 day(s).
| Time | Temp. | Humidity | Pressure | Rain* | Wind** | Luminosity | Snow |
|---|---|---|---|---|---|---|---|
| 1777740186 | 7.22° C | 72% | 1018.3 hPa | 0 mm | - | 170 W/m² | - |
| 1777739881 | 7.78° C | 70% | 1018.2 hPa | 0 mm | - | 253 W/m² | - |
| 1777739578 | 7.22° C | 71% | 1018.2 hPa | 0 mm | - | 596 W/m² | - |
| 1777739275 | 7.22° C | 71% | 1018.2 hPa | 0 mm | - | 255 W/m² | - |
| 1777738972 | 7.22° C | 70% | 1018 hPa | 0 mm | - | 185 W/m² | - |
| 1777738669 | 7.78° C | 68% | 1018.1 hPa | 0 mm | - | 193 W/m² | - |
| 1777738365 | 7.78° C | 62% | 1017.8 hPa | 0 mm | - | 212 W/m² | - |
| 1777738064 | 7.78° C | 63% | 1018 hPa | 0 mm | - | 204 W/m² | - |
| 1777737763 | 7.78° C | 62% | 1017.9 hPa | 0 mm | - | 177 W/m² | - |
| 1777737461 | 7.78° C | 62% | 1018.1 hPa | 0 mm | - | 134 W/m² | - |
| 1777737158 | 7.78° C | 61% | 1018 hPa | 0 mm | - | 132 W/m² | - |
| 1777736854 | 7.78° C | 64% | 1018.1 hPa | 0 mm | - | 170 W/m² | - |
| 1777736240 | 7.78° C | 65% | 1017.8 hPa | 0 mm | - | 144 W/m² | - |
| 1777735937 | 7.78° C | 66% | 1017.9 hPa | 0 mm | - | 129 W/m² | - |
| 1777735635 | 7.78° C | 65% | 1017.7 hPa | 0 mm | - | 81 W/m² | - |
| 1777735332 | 7.78° C | 67% | 1017.6 hPa | 0 mm | - | 88 W/m² | - |
| 1777735029 | 7.78° C | 68% | 1017.8 hPa | 0 mm | - | 217 W/m² | - |
| 1777734726 | 7.22° C | 69% | 1017.9 hPa | 0 mm | - | 281 W/m² | - |
| 1777734423 | 7.22° C | 70% | 1017.9 hPa | 0 mm | - | 291 W/m² | - |
| 1777734120 | 7.22° C | 71% | 1017.9 hPa | 0 mm | - | 172 W/m² | - |
| 1777733816 | 7.22° C | 71% | 1017.7 hPa | 0 mm | - | 116 W/m² | - |
| 1777733513 | 7.22° C | 72% | 1017.5 hPa | 0 mm | - | 49 W/m² | - |
| 1777733209 | 7.78° C | 71% | 1017.6 hPa | 0 mm | - | 27 W/m² | - |
| 1777732906 | 7.78° C | 70% | 1017.3 hPa | 0 mm | - | 25 W/m² | - |
| 1777732603 | 8.89° C | 69% | 1017.5 hPa | 0 mm | - | 180 W/m² | - |
* Rain latest hour (hover to see other rain measurements)
** Current wind speed in m/s (hover to see current wind gust speed)